FW6724 Weather Reports


Display with metric or nautical units.
time (UTC)temp
F
wind
direction
speed
MPH
gust
MPH
rain 1hr
in
rain 24hr
in
rain mn
in
humidity
%
barometer
mb
20260903054545 76 0 0.0 3.0 0.00 0.00 0.00 71 1021.9
20260903053044 76 275 1.0 4.0 0.00 0.00 0.00 71 1021.7
20260903051540 75 277 1.0 3.0 0.00 0.00 0.00 71 1021.5
20260903050048 75 281 2.0 4.0 0.00 0.00 0.00 71 1021.6
20260903044551 74 280 2.0 7.0 0.00 0.00 0.00 70 1021.5
20260903043043 74 290 3.0 7.0 0.00 0.00 0.00 70 1021.5
20260903041555 75 286 2.0 4.0 0.00 0.00 0.00 70 1021.5
20260903040046 75 298 0.0 4.0 0.00 0.00 0.00 70 1021.5
20260903034546 75 277 1.0 4.0 0.00 0.00 0.00 70 1021.6
20260903033043 76 0 0.0 0.0 0.00 0.00 0.00 70 1021.5
20260903031539 76 274 0.0 3.0 0.00 0.00 0.00 71 1021.5
20260903030046 76 0 0.0 3.0 0.00 0.00 0.00 71 1021.5
20260903024545 76 273 1.0 4.0 0.00 0.00 0.00 71 1021.6
20260903023043 76 278 2.0 7.0 0.00 0.00 0.00 70 1021.5
20260903021541 76 300 2.0 4.0 0.00 0.00 0.00 70 1021.6
20260903020052 76 223 1.0 3.0 0.00 0.00 0.00 70 1021.7
20260903014605 76 0 0.0 3.0 0.00 0.00 0.00 70 1021.7
20260903013043 77 0 0.0 0.0 0.00 0.00 0.00 71 1021.8
20260903011612 78 0 0.0 0.0 0.00 0.00 0.00 71 1021.8
20260903010101 78 0 0.0 0.0 0.00 0.00 0.00 71 1021.8
20260903004542 78 0 0.0 0.0 0.00 0.00 0.00 71 1021.9
20260903003100 78 0 0.0 0.0 0.00 0.00 0.00 70 1022.0
20260903001555 78 0 0.0 4.0 0.00 0.00 0.00 70 1022.0
20260903000049 78 98 1.0 4.0 0.00 0.00 0.00 70 1022.1
20260902234546 78 0 0.0 0.0 0.00 0.00 0.00 69 1022.0
20260902233043 78 0 0.0 0.0 0.00 0.00 0.00 69 1022.0
20260902231548 78 0 0.0 3.0 0.00 0.00 0.00 68 1022.0
20260902230057 78 0 0.0 3.0 0.00 0.00 0.00 68 1021.9
20260902224547 79 0 0.0 4.0 0.00 0.00 0.00 67 1021.7
20260902223045 79 86 1.0 4.0 0.00 0.00 0.00 67 1021.6
20260902221543 79 106 2.0 6.0 0.00 0.00 0.00 66 1021.4
20260902220046 79 104 2.0 7.0 0.00 0.00 0.00 66 1021.5
20260902214549 80 140 3.0 10.0 0.00 0.00 0.00 66 1021.5
20260902213043 80 163 3.0 9.0 0.00 0.00 0.00 65 1021.4
20260902211543 80 130 5.0 9.0 0.00 0.00 0.00 64 1021.3
20260902210046 80 124 3.0 8.0 0.00 0.00 0.00 62 1021.2
20260902204544 81 119 4.0 7.0 0.00 0.00 0.00 62 1021.1
20260902203043 81 128 2.0 4.0 0.00 0.00 0.00 61 1020.9
20260902201551 82 0 1.0 4.0 0.00 0.00 0.00 59 1020.8
20260902200046 82 88 1.0 4.0 0.00 0.00 0.00 58 1020.6
20260902194551 82 84 2.0 7.0 0.00 0.00 0.00 57 1020.4
20260902193045 83 0 0.0 4.0 0.00 0.00 0.00 56 1020.2
20260902191538 83 121 2.0 7.0 0.00 0.00 0.00 55 1020.0
20260902190049 84 137 2.0 8.0 0.00 0.00 0.00 55 1019.8
20260902184547 84 101 1.0 7.0 0.00 0.00 0.00 54 1019.6
20260902183045 85 141 1.0 8.0 0.00 0.00 0.00 53 1019.7
20260902181545 85 110 3.0 7.0 0.00 0.00 0.00 53 1019.6
20260902180101 86 130 3.0 7.0 0.00 0.00 0.00 51 1019.4
20260902174544 87 124 3.0 8.0 0.00 0.00 0.00 50 1019.3
20260902173045 88 125 4.0 8.0 0.00 0.00 0.00 49 1019.3
20260902171549 88 135 3.0 9.0 0.00 0.00 0.00 47 1019.3
20260902170043 89 79 4.0 9.0 0.00 0.00 0.00 43 1019.4
20260902164541 89 126 4.0 10.0 0.00 0.00 0.00 41 1019.6
20260902163044 89 134 4.0 9.0 0.00 0.00 0.00 42 1019.5
20260902161545 89 91 5.0 10.0 0.00 0.00 0.00 40 1019.5
20260902160046 90 55 5.0 10.0 0.00 0.00 0.00 40 1019.6
20260902154541 90 100 5.0 10.0 0.00 0.00 0.00 42 1019.8
20260902153044 91 126 5.0 10.0 0.00 0.00 0.00 42 1019.7
20260902151549 90 86 6.0 11.0 0.00 0.00 0.00 39 1019.7
20260902150042 90 115 6.0 12.0 0.00 0.00 0.00 39 1020.0
20260902144541 91 107 5.0 12.0 0.00 0.00 0.00 35 1020.1
20260902143042 91 113 5.0 12.0 0.00 0.00 0.00 36 1020.2
20260902141543 91 138 7.0 13.0 0.00 0.00 0.00 37 1020.3
20260902140039 90 86 7.0 13.0 0.00 0.00 0.00 37 1020.5
20260902134542 90 70 8.0 14.0 0.00 0.00 0.00 38 1020.5
20260902133046 89 123 7.0 15.0 0.00 0.00 0.00 40 1020.7
20260902131544 90 155 5.0 14.0 0.00 0.00 0.00 42 1020.7
20260902130042 89 133 6.0 14.0 0.00 0.00 0.00 41 1020.8
20260902124542 89 140 8.0 17.0 0.00 0.00 0.00 44 1020.9
20260902123040 89 128 7.0 13.0 0.00 0.00 0.00 44 1021.0
20260902121547 89 118 5.0 11.0 0.00 0.00 0.00 46 1020.9
20260902120042 89 130 4.0 13.0 0.00 0.00 0.00 45 1020.9
20260902114544 89 117 5.0 12.0 0.00 0.00 0.00 45 1021.1
20260902113046 88 69 5.0 11.0 0.00 0.00 0.00 47 1021.2
20260902111544 88 148 3.0 11.0 0.00 0.00 0.00 50 1021.3
20260902110043 87 93 4.0 11.0 0.00 0.00 0.00 51 1021.3
20260902104603 86 138 5.0 12.0 0.00 0.00 0.00 52 1021.3
20260902103046 86 108 6.0 12.0 0.00 0.00 0.00 53 1021.3
20260902101542 86 78 5.0 11.0 0.00 0.00 0.00 52 1021.2
20260902100101 85 105 5.0 11.0 0.00 0.00 0.00 55 1021.4
20260902094541 85 111 4.0 10.0 0.00 0.00 0.00 55 1021.5
20260902093048 84 46 3.0 11.0 0.00 0.00 0.00 55 1021.4
20260902091543 84 42 3.0 10.0 0.00 0.00 0.00 58 1021.4
20260902090042 83 50 3.0 8.0 0.00 0.00 0.00 58 1021.5
20260902084542 82 77 1.0 5.0 0.00 0.00 0.00 59 1021.4
20260902083048 80 98 1.0 6.0 0.00 0.00 0.00 61 1021.3
20260902081605 79 75 2.0 4.0 0.00 0.00 0.00 63 1021.0
20260902080054 78 0 0.0 4.0 0.00 0.00 0.00 65 1021.1
20260902074544 77 85 2.0 6.0 0.00 0.00 0.00 66 1021.3
20260902073038 76 96 1.0 3.0 0.00 0.00 0.00 67 1021.1
20260902071545 75 0 0.0 0.0 0.00 0.00 0.00 68 1021.1
20260902070044 74 0 0.0 3.0 0.00 0.00 0.00 68 1020.9
20260902064542 74 0 0.0 3.0 0.00 0.00 0.00 68 1020.4
20260902063101 74 37 2.0 5.0 0.00 0.00 0.00 68 1020.1
20260902061551 74 152 0.0 5.0 0.00 0.00 0.00 67 1020.0
20260902060059 74 0 0.0 2.0 0.00 0.00 0.00 67 1019.5